DW3823 Weather Reports


Display with metric or nautical units.
time (UTC)temp
F
wind
direction
speed
MPH
gust
MPH
rain 1hr
in
rain 24hr
in
rain mn
in
humidity
%
barometer
mb
20260905134040 77 113 0.0 2.0 0.00 0.00 0.00 89 1014.1
20260905133539 77 113 0.0 1.0 0.00 0.00 0.00 88 1014.1
20260905133037 76 113 0.0 0.0 0.00 0.00 0.00 91 1014.1
20260905132537 76 113 0.0 2.0 0.00 0.00 0.00 90 1014.1
20260905132037 76 113 0.0 2.0 0.00 0.00 0.00 89 1014.2
20260905131535 76 108 0.0 1.0 0.00 0.00 0.00 91 1014.3
20260905131033 76 67 0.0 2.0 0.00 0.00 0.00 90 1014.5
20260905130534 76 67 0.0 2.0 0.00 0.00 0.00 89 1014.5
20260905130032 75 67 0.0 2.0 0.00 0.00 0.00 90 1014.4
20260905125530 75 65 0.0 2.0 0.00 0.00 0.00 91 1014.4
20260905125029 75 196 0.0 2.0 0.00 0.00 0.00 91 1014.5
20260905124528 75 196 0.0 4.0 0.00 0.00 0.00 92 1014.7
20260905124026 74 196 0.0 4.0 0.00 0.00 0.00 93 1014.6
20260905123524 74 257 0.0 2.0 0.00 0.00 0.00 96 1014.5
20260905123023 74 323 0.0 0.0 0.00 0.00 0.00 96 1014.4
20260905122524 73 323 0.0 0.0 0.00 0.00 0.00 96 1014.3
20260905122021 73 323 0.0 0.0 0.00 0.00 0.00 96 1014.2
20260905121519 73 323 0.0 0.0 0.00 0.00 0.00 97 1014.2
20260905121018 73 323 0.0 0.0 0.00 0.00 0.00 97 1014.1
20260905120517 73 323 0.0 0.0 0.00 0.00 0.00 97 1014.1
20260905120023 73 323 0.0 0.0 0.00 0.00 0.00 97 1014.1
20260905115515 73 323 0.0 0.0 0.00 0.00 0.00 97 1014.0
20260905115014 73 322 0.0 0.0 0.00 0.00 0.00 97 1014.0
20260905114513 72 323 0.0 0.0 0.00 0.00 0.00 97 1013.8
20260905114012 72 323 0.0 0.0 0.00 0.00 0.00 97 1013.8
20260905113511 72 323 0.0 0.0 0.00 0.00 0.00 97 1013.7
20260905113012 72 323 0.0 0.0 0.00 0.00 0.00 97 1013.7
20260905112511 72 323 0.0 1.0 0.00 0.00 0.00 97 1013.6
20260905112009 72 323 0.0 1.0 0.00 0.00 0.00 97 1013.6
20260905111510 72 323 0.0 0.0 0.00 0.00 0.00 97 1013.6
20260905111015 72 323 0.0 0.0 0.00 0.00 0.00 97 1013.5
20260905110508 72 323 0.0 0.0 0.00 0.00 0.00 97 1013.4
20260905110009 72 323 0.0 0.0 0.00 0.00 0.00 97 1013.4
20260905105512 71 323 0.0 0.0 0.00 0.00 0.00 97 1013.4
20260905105011 71 323 0.0 0.0 0.00 0.00 0.00 97 1013.3
20260905104508 71 323 0.0 0.0 0.00 0.00 0.00 97 1013.3
20260905104007 71 323 0.0 0.0 0.00 0.00 0.00 97 1013.2
20260905103507 71 323 0.0 0.0 0.00 0.00 0.00 97 1013.1
20260905103009 71 323 0.0 0.0 0.00 0.00 0.00 97 1013.0
20260905102506 71 323 0.0 0.0 0.00 0.00 0.00 96 1013.0
20260905102006 71 323 0.0 0.0 0.00 0.00 0.00 96 1013.0
20260905101506 71 323 0.0 0.0 0.00 0.00 0.00 96 1013.0
20260905101005 71 323 0.0 0.0 0.00 0.00 0.00 96 1013.0
20260905100505 71 323 0.0 0.0 0.00 0.00 0.00 96 1013.0
20260905100005 72 323 0.0 0.0 0.00 0.00 0.00 95 1013.0
20260905095508 72 323 0.0 0.0 0.00 0.00 0.00 95 1012.9
20260905095003 72 323 0.0 0.0 0.00 0.00 0.00 95 1012.9
20260905094505 72 323 0.0 0.0 0.00 0.00 0.00 95 1012.8
20260905094003 72 323 0.0 0.0 0.00 0.00 0.00 95 1012.8
20260905093503 72 323 0.0 1.0 0.00 0.00 0.00 94 1012.8
20260905093001 72 323 0.0 1.0 0.00 0.00 0.00 94 1012.8
20260905092500 72 323 0.0 0.0 0.00 0.00 0.00 94 1012.6
20260905092001 72 323 0.0 0.0 0.00 0.00 0.00 94 1012.6
20260905091501 72 323 0.0 0.0 0.00 0.00 0.00 94 1012.6
20260905091100 72 323 0.0 0.0 0.00 0.00 0.00 94 1012.6
20260905090559 72 323 0.0 0.0 0.00 0.00 0.00 95 1012.4
20260905085559 72 323 0.0 1.0 0.00 0.00 0.00 94 1012.6
20260905085058 72 323 0.0 1.0 0.00 0.00 0.00 95 1012.6
20260905084558 72 323 0.0 0.0 0.00 0.00 0.00 94 1012.9
20260905084101 72 323 0.0 0.0 0.00 0.00 0.00 94 1012.8
20260905083600 73 323 0.0 1.0 0.00 0.00 0.00 94 1012.7
20260905083056 73 323 0.0 1.0 0.00 0.00 0.00 94 1012.8
20260905082556 73 323 0.0 1.0 0.00 0.00 0.00 94 1012.8
20260905082056 73 323 0.0 0.0 0.00 0.00 0.00 94 1012.8
20260905081556 73 323 0.0 0.0 0.00 0.00 0.00 94 1012.8
20260905081055 73 323 0.0 0.0 0.00 0.00 0.00 94 1012.9
20260905080557 72 323 0.0 0.0 0.00 0.00 0.00 94 1012.9
20260905080054 72 323 0.0 0.0 0.00 0.00 0.00 94 1013.0
20260905075554 73 323 0.0 1.0 0.00 0.00 0.00 94 1013.0
20260905075054 73 323 0.0 1.0 0.00 0.00 0.00 94 1013.2
20260905074553 72 323 0.0 0.0 0.00 0.00 0.00 94 1013.2
20260905074052 72 323 0.0 0.0 0.00 0.00 0.00 94 1013.1
20260905073554 73 323 0.0 0.0 0.00 0.00 0.00 94 1013.2
20260905073052 73 323 0.0 0.0 0.00 0.00 0.00 94 1013.2
20260905072550 73 323 0.0 0.0 0.00 0.00 0.00 94 1013.1
20260905072050 73 323 0.0 0.0 0.00 0.00 0.00 94 1013.1
20260905071550 73 323 0.0 0.0 0.00 0.00 0.00 93 1013.1
20260905071052 73 323 0.0 0.0 0.00 0.00 0.00 93 1013.1
20260905070548 73 360 0.0 0.0 0.00 0.00 0.00 93 1013.2
20260905070049 73 323 0.0 1.0 0.00 0.00 0.00 93 1013.2
20260905065548 73 323 0.0 1.0 0.00 0.00 0.00 93 1013.2
20260905065048 73 323 0.0 0.0 0.00 0.00 0.00 93 1013.2
20260905064552 73 323 0.0 0.0 0.00 0.00 0.00 93 1013.2
20260905064048 73 323 0.0 0.0 0.00 0.00 0.00 93 1013.3
20260905063548 73 323 0.0 0.0 0.00 0.00 0.00 93 1013.2
20260905063048 73 323 0.0 0.0 0.00 0.00 0.00 93 1013.3
20260905062545 73 323 0.0 0.0 0.00 0.00 0.00 93 1013.3
20260905062046 73 323 0.0 0.0 0.00 0.00 0.00 92 1013.3
20260905061553 74 323 0.0 0.0 0.00 0.00 0.00 92 1013.3
20260905061045 74 323 0.0 0.0 0.00 0.00 0.00 92 1013.3
20260905060544 74 323 0.0 0.0 0.00 0.00 0.00 92 1013.4
20260905060048 74 323 0.0 0.0 0.00 0.00 0.00 92 1013.6
20260905055543 74 323 0.0 1.0 0.00 0.00 0.00 91 1013.7
20260905055046 74 323 0.0 1.0 0.00 0.00 0.00 92 1013.8
20260905054541 74 323 0.0 1.0 0.00 0.00 0.00 92 1013.8
20260905054039 74 323 0.0 1.0 0.00 0.00 0.00 93 1013.7
20260905053539 73 321 0.0 1.0 0.00 0.00 0.00 93 1013.9
20260905053039 73 321 0.0 0.0 0.00 0.00 0.00 93 1013.7
20260905052537 73 322 0.0 0.0 0.00 0.00 0.00 92 1013.8
20260905052037 74 360 0.0 0.0 0.00 0.00 0.00 92 1013.7
20260905051536 74 322 0.0 0.0 0.00 0.00 0.00 92 1013.6
20260905051034 74 322 0.0 0.0 0.00 0.00 0.00 92 1013.5
20260905050533 74 321 0.0 0.0 0.00 0.00 0.00 92 1013.5
20260905050032 74 322 0.0 0.0 0.00 0.00 0.00 92 1013.5
20260905045531 74 321 0.0 0.0 0.00 0.00 0.00 91 1013.5
20260905045031 74 322 0.0 0.0 0.00 0.00 0.00 91 1013.4
20260905044531 74 323 0.0 0.0 0.00 0.00 0.00 91 1013.4
20260905044031 75 323 0.0 0.0 0.00 0.00 0.00 91 1013.5
20260905043532 75 323 0.0 0.0 0.00 0.00 0.00 91 1013.4
20260905043031 75 323 0.0 0.0 0.00 0.00 0.00 91 1013.6
20260905042530 75 323 0.0 0.0 0.00 0.00 0.00 91 1013.7
20260905042031 75 323 0.0 0.0 0.00 0.00 0.00 90 1013.6
20260905041532 75 322 0.0 0.0 0.00 0.00 0.00 90 1013.5
20260905041029 75 322 0.0 0.0 0.00 0.00 0.00 91 1013.6
20260905040532 75 322 0.0 0.0 0.00 0.00 0.00 90 1013.7
20260905040033 75 322 0.0 0.0 0.00 0.00 0.00 90 1013.9
20260905035530 76 360 0.0 0.0 0.00 0.00 0.00 90 1013.7
20260905035029 76 360 0.0 0.0 0.00 0.00 0.00 89 1013.7
20260905034533 76 322 0.0 0.0 0.00 0.00 0.00 88 1013.6
20260905034029 76 360 0.0 0.0 0.00 0.00 0.00 88 1013.5
20260905033532 76 360 0.0 0.0 0.00 0.00 0.00 88 1013.5
20260905033030 77 323 0.0 0.0 0.00 0.00 0.00 88 1013.6
20260905032529 77 323 0.0 0.0 0.00 0.00 0.00 87 1013.7
20260905032030 77 323 0.0 0.0 0.00 0.00 0.00 86 1013.9
20260905031532 78 323 0.0 1.0 0.00 0.00 0.00 85 1014.0
20260905031027 78 323 0.0 1.0 0.00 0.00 0.00 85 1014.1
20260905030528 77 323 0.0 1.0 0.00 0.00 0.00 85 1014.2
20260905030031 78 323 0.0 0.0 0.00 0.00 0.00 85 1014.3
20260905025527 78 323 0.0 0.0 0.00 0.00 0.00 85 1014.1
20260905025027 78 323 0.0 0.0 0.00 0.00 0.00 85 1014.2
20260905024528 78 323 0.0 0.0 0.00 0.00 0.00 84 1014.2
20260905024027 79 323 0.0 2.0 0.00 0.00 0.00 83 1013.9
20260905023527 80 323 0.0 2.0 0.00 0.00 0.00 80 1013.8
20260905023027 80 323 0.0 2.0 0.00 0.00 0.00 81 1013.7
20260905022527 80 323 0.0 2.0 0.00 0.00 0.00 82 1013.7
20260905022026 79 323 0.0 2.0 0.00 0.00 0.00 82 1013.7
20260905021532 79 323 0.0 0.0 0.00 0.00 0.00 83 1013.9
20260905021025 79 323 0.0 0.0 0.00 0.00 0.00 84 1014.2
20260905020528 79 323 0.0 0.0 0.00 0.00 0.00 85 1014.2
20260905020041 78 323 0.0 0.0 0.00 0.00 0.00 86 1014.4
20260905015525 78 323 0.0 0.0 0.00 0.00 0.00 86 1014.2
20260905015029 78 323 0.0 0.0 0.00 0.00 0.00 86 1014.1
20260905014525 78 323 0.0 0.0 0.00 0.00 0.00 86 1014.0
20260905014025 79 323 0.0 0.0 0.00 0.00 0.00 86 1014.1
20260905013525 79 323 0.0 0.0 0.00 0.00 0.00 85 1013.9
20260905013031 79 323 0.0 0.0 0.00 0.00 0.00 84 1013.9
20260905012525 79 323 0.0 0.0 0.00 0.00 0.00 84 1013.7
20260905012024 80 323 0.0 0.0 0.00 0.00 0.00 83 1013.7
20260905011535 80 323 0.0 0.0 0.00 0.00 0.00 83 1013.7
20260905011024 80 323 0.0 0.0 0.00 0.00 0.00 84 1014.0
20260905010524 80 323 0.0 0.0 0.00 0.00 0.00 84 1014.0
20260905010023 80 323 0.0 0.0 0.00 0.00 0.00 82 1013.9
20260905005525 81 323 0.0 0.0 0.00 0.00 0.00 81 1013.7
20260905005025 81 323 0.0 0.0 0.00 0.00 0.00 82 1013.9
20260905004523 81 323 0.0 0.0 0.00 0.00 0.00 83 1013.8
20260905004023 81 323 0.0 0.0 0.00 0.00 0.00 83 1013.6
20260905003524 81 323 0.0 0.0 0.00 0.00 0.00 82 1013.5
20260905003029 82 323 0.0 0.0 0.00 0.00 0.00 79 1013.5
20260905002523 82 323 0.0 1.0 0.00 0.00 0.00 81 1013.6
20260905002023 83 323 0.0 2.0 0.00 0.00 0.00 79 1013.5
20260905001523 83 323 0.0 2.0 0.00 0.00 0.00 80 1013.6
20260905001024 83 323 0.0 0.0 0.00 0.00 0.00 78 1013.5
20260905000522 84 323 0.0 1.0 0.00 0.00 0.00 77 1013.4
20260905000022 84 323 0.0 1.0 0.00 0.00 0.00 76 1013.4
20260904235521 84 323 0.0 1.0 0.00 0.00 0.00 77 1013.5
20260904235025 85 323 0.0 2.0 0.00 0.00 0.00 77 1013.6
20260904234522 85 323 1.0 3.0 0.00 0.00 0.00 76 1013.3
20260904234023 85 323 1.0 3.0 0.00 0.00 0.00 75 1013.3
20260904233521 85 135 0.0 2.0 0.00 0.00 0.00 78 1013.4
20260904233021 85 135 0.0 1.0 0.00 0.00 0.00 78 1013.2
20260904232521 87 135 0.0 1.0 0.00 0.00 0.00 74 1013.1
20260904232020 88 135 0.0 1.0 0.00 0.00 0.00 71 1013.2
20260904231521 88 135 0.0 0.0 0.00 0.00 0.00 70 1013.4
20260904231021 88 135 0.0 2.0 0.00 0.00 0.00 69 1013.3
20260904230620 88 135 0.0 2.0 0.00 0.00 0.00 68 1013.2
20260904230020 89 136 0.0 1.0 0.00 0.00 0.00 66 1013.2
20260904225524 89 136 0.0 3.0 0.00 0.00 0.00 67 1013.1
20260904225020 90 136 1.0 3.0 0.00 0.00 0.00 63 1013.1
20260904224519 91 154 0.0 3.0 0.00 0.00 0.00 60 1013.1
20260904224019 91 154 0.0 3.0 0.00 0.00 0.00 63 1012.9
20260904223518 91 148 0.0 2.0 0.00 0.00 0.00 63 1012.7
20260904223019 92 148 0.0 3.0 0.00 0.00 0.00 61 1012.8
20260904222519 93 148 1.0 3.0 0.00 0.00 0.00 57 1012.8
20260904222018 93 185 1.0 5.0 0.00 0.00 0.00 56 1013.0
20260904221518 93 175 2.0 5.0 0.00 0.00 0.00 55 1012.9
20260904221018 92 181 1.0 4.0 0.00 0.00 0.00 57 1013.0
20260904220519 90 150 1.0 3.0 0.00 0.00 0.00 60 1013.0
20260904220018 88 178 0.0 2.0 0.00 0.00 0.00 69 1013.0
20260904215518 87 178 0.0 2.0 0.00 0.00 0.00 70 1013.1
20260904215017 88 178 1.0 2.0 0.00 0.00 0.00 68 1012.8
20260904214517 87 178 0.0 1.0 0.00 0.00 0.00 68 1012.9
20260904214017 88 178 0.0 3.0 0.00 0.00 0.00 65 1012.7
20260904213516 89 178 1.0 3.0 0.00 0.00 0.00 63 1012.9
20260904213016 89 175 0.0 5.0 0.00 0.00 0.00 63 1013.0
20260904212515 90 203 0.0 5.0 0.00 0.00 0.00 59 1013.0
20260904212015 91 165 2.0 6.0 0.00 0.00 0.00 56 1013.1
20260904211515 92 195 2.0 9.0 0.00 0.00 0.00 56 1013.1
20260904211014 92 172 2.0 9.0 0.00 0.00 0.00 56 1013.1
20260904210514 94 147 2.0 7.0 0.00 0.00 0.00 55 1013.3
20260904210014 95 163 1.0 7.0 0.00 0.00 0.00 52 1013.3
20260904205519 97 324 1.0 3.0 0.00 0.00 0.00 48 1013.1
20260904205014 96 302 1.0 3.0 0.00 0.00 0.00 48 1013.1
20260904204513 95 278 1.0 2.0 0.00 0.00 0.00 54 1013.0
20260904204012 94 276 0.0 3.0 0.00 0.00 0.00 53 1013.3
20260904203512 95 275 0.0 6.0 0.00 0.00 0.00 50 1013.6
20260904203016 97 49 1.0 3.0 0.00 0.00 0.00 49 1013.4
20260904202510 98 41 1.0 6.0 0.00 0.00 0.00 49 1013.4
20260904202010 97 313 3.0 6.0 0.00 0.00 0.00 47 1013.5
20260904201510 98 319 2.0 4.0 0.00 0.00 0.00 45 1013.5
20260904201010 98 335 2.0 4.0 0.00 0.00 0.00 45 1013.6
20260904200507 97 301 2.0 6.0 0.00 0.00 0.00 48 1013.5
20260904200007 97 257 1.0 6.0 0.00 0.00 0.00 45 1013.5
20260904195506 97 311 2.0 5.0 0.00 0.00 0.00 45 1013.7
20260904195007 97 44 1.0 3.0 0.00 0.00 0.00 48 1013.7
20260904194506 97 355 1.0 4.0 0.00 0.00 0.00 50 1013.8
20260904194004 98 69 2.0 4.0 0.00 0.00 0.00 48 1014.0
20260904193502 97 71 1.0 5.0 0.00 0.00 0.00 52 1014.2
20260904193002 96 82 1.0 5.0 0.00 0.00 0.00 48 1014.2
20260904192501 96 108 1.0 5.0 0.00 0.00 0.00 47 1014.4
20260904192001 95 173 2.0 4.0 0.00 0.00 0.00 49 1014.4
20260904191501 93 265 0.0 3.0 0.00 0.00 0.00 51 1014.5
20260904190600 95 281 0.0 7.0 0.00 0.00 0.00 48 1014.6
20260904190059 97 323 3.0 7.0 0.00 0.00 0.00 48 1014.6
20260904185558 96 258 2.0 4.0 0.00 0.00 0.00 48 1014.6
20260904185058 97 271 2.0 6.0 0.00 0.00 0.00 49 1014.7
20260904184557 96 286 1.0 4.0 0.00 0.00 0.00 48 1014.9
20260904184057 96 289 2.0 5.0 0.00 0.00 0.00 50 1015.0
20260904183557 96 320 2.0 4.0 0.00 0.00 0.00 49 1014.9
20260904183112 96 336 1.0 4.0 0.00 0.00 0.00 50 1014.8
20260904182556 96 295 1.0 5.0 0.00 0.00 0.00 48 1014.9
20260904182054 96 245 1.0 5.0 0.00 0.00 0.00 50 1015.0
20260904181606 95 268 2.0 6.0 0.00 0.00 0.00 51 1015.3
20260904181054 95 109 2.0 4.0 0.00 0.00 0.00 51 1015.6
20260904180556 93 306 1.0 4.0 0.00 0.00 0.00 54 1015.5
20260904180054 94 263 1.0 7.0 0.00 0.00 0.00 52 1015.5
20260904175555 96 278 1.0 6.0 0.00 0.00 0.00 51 1015.4
20260904175055 95 61 1.0 8.0 0.00 0.00 0.00 50 1015.4
20260904174554 96 34 3.0 8.0 0.00 0.00 0.00 51 1015.7
20260904174051 95 236 2.0 5.0 0.00 0.00 0.00 53 1015.7
20260904173552 95 282 1.0 4.0 0.00 0.00 0.00 52 1015.7
20260904173051 95 65 1.0 6.0 0.00 0.00 0.00 54 1015.7
20260904172552 95 242 1.0 5.0 0.00 0.00 0.00 53 1015.9
20260904172050 95 294 1.0 5.0 0.00 0.00 0.00 54 1015.9
20260904171551 95 25 2.0 4.0 0.00 0.00 0.00 53 1015.7
20260904171047 95 112 1.0 4.0 0.00 0.00 0.00 53 1015.7
20260904170546 94 78 1.0 4.0 0.00 0.00 0.00 55 1015.9
20260904170045 94 74 1.0 3.0 0.00 0.00 0.00 56 1015.9
20260904165545 94 260 0.0 4.0 0.00 0.00 0.00 55 1016.1
20260904165043 94 289 1.0 6.0 0.00 0.00 0.00 55 1016.1
20260904164546 94 327 1.0 6.0 0.00 0.00 0.00 54 1016.2
20260904164043 94 317 3.0 6.0 0.00 0.00 0.00 55 1016.3
20260904163541 93 90 1.0 7.0 0.00 0.00 0.00 56 1016.2
20260904163041 93 86 2.0 4.0 0.00 0.00 0.00 56 1016.4
20260904162545 93 351 1.0 4.0 0.00 0.00 0.00 57 1016.4
20260904162037 93 248 2.0 4.0 0.00 0.00 0.00 59 1016.5
20260904161537 93 254 2.0 4.0 0.00 0.00 0.00 60 1016.2
20260904161038 92 139 0.0 5.0 0.00 0.00 0.00 60 1016.2
20260904160534 92 130 1.0 5.0 0.00 0.00 0.00 59 1016.4
20260904160033 92 195 1.0 4.0 0.00 0.00 0.00 59 1016.4
20260904155532 92 9 1.0 3.0 0.00 0.00 0.00 60 1016.5
20260904155030 92 321 1.0 4.0 0.00 0.00 0.00 59 1016.7
20260904154542 92 324 2.0 5.0 0.00 0.00 0.00 60 1016.5
20260904154030 92 242 1.0 7.0 0.00 0.00 0.00 61 1016.6
20260904153525 91 164 2.0 6.0 0.00 0.00 0.00 60 1016.5
20260904153026 91 155 1.0 2.0 0.00 0.00 0.00 61 1016.6
20260904152526 91 249 0.0 4.0 0.00 0.00 0.00 62 1016.6
20260904152021 91 249 2.0 4.0 0.00 0.00 0.00 60 1016.6
20260904151522 90 242 2.0 4.0 0.00 0.00 0.00 61 1016.4
20260904151018 90 217 2.0 4.0 0.00 0.00 0.00 63 1016.5
20260904150516 90 182 1.0 4.0 0.00 0.00 0.00 64 1016.4
20260904150018 90 273 1.0 4.0 0.00 0.00 0.00 63 1016.4
20260904145514 90 214 1.0 5.0 0.00 0.00 0.00 64 1016.3
20260904145012 89 302 1.0 4.0 0.00 0.00 0.00 65 1016.3
20260904144510 89 242 1.0 5.0 0.00 0.00 0.00 64 1016.5
20260904144012 88 213 1.0 6.0 0.00 0.00 0.00 64 1016.4
20260904143508 87 175 2.0 6.0 0.00 0.00 0.00 66 1016.4
20260904143006 87 177 1.0 5.0 0.00 0.00 0.00 67 1016.3
20260904142505 86 238 2.0 5.0 0.00 0.00 0.00 67 1016.3
20260904142004 86 163 0.0 3.0 0.00 0.00 0.00 68 1016.4
20260904141507 86 338 0.0 4.0 0.00 0.00 0.00 68 1016.3
20260904141002 85 336 1.0 4.0 0.00 0.00 0.00 71 1016.3
20260904140600 85 175 0.0 3.0 0.00 0.00 0.00 73 1016.4
20260904140059 85 175 1.0 5.0 0.00 0.00 0.00 69 1016.3
20260904135601 85 159 2.0 5.0 0.00 0.00 0.00 71 1016.2
20260904135057 84 155 2.0 5.0 0.00 0.00 0.00 71 1016.3
20260904134600 84 225 1.0 4.0 0.00 0.00 0.00 73 1016.3
20260904134057 83 183 1.0 4.0 0.00 0.00 0.00 74 1016.3